sat.trackr.live / text

‹ back to catalog

STARLINK-34988

NORAD 65453 · 2025-194V

PAYLOAD ACTIVE UNKNOWN

§ Identity

Operator
Country
US
Launch date
2025-09-03
Launch site
AFWTR
Launch vehicle
Mass (kg)
RCS (m²)

Purposes: comms

External: N2YO · Heavens-Above · Gunter

§ Orbital elements

Epoch: 2026-05-25T02:27:52.761600Z

Period
95.69 min
Inclination
97.5140°
Eccentricity
0.0001749
Mean motion
15.04837683 rev/d
Perigee alt
550.8 km
Apogee alt
553.2 km
Semi-major
6,930.1 km
B*
1.9182e-4
RAAN
0.2491°
Arg perigee
80.5294°
Mean anomaly
279.6130°
Rev number
4,119

§ Raw data

STARLINK-349881 65453U 25194V   26145.10269400  .00002650  00000+0  19182-3 0  99902 65453  97.5140   0.2491 0001749  80.5294 279.6130 15.04837683 41194

JSON: /api/v1/satellites/65453 · /tle

For live sub-satellite position, see the globe view (requires WebGL).

§ Visibility from observer

Set your observer location to see the next 7 days of passes ≥ 10°. The values pass through the URL so the page stays shareable.

No JS? Fill the form by hand. The geolocation button needs JavaScript.